• In Uzbekistan
  • List of Countries
  • For 7 days
  • Water Temperature
  • Weather Map
  • Weather Widgets
  • user-avatar
    Login

    Hourly Weather Carmarthen

    Today, 27 May, Wednesday

    Time Temperature Precipitation Wind Pressure Humidity
    00:00 +7°C° 0 mm 2 mps 776 mmHg 90%
    01:00 +9°C° 0 mm 1 mps 775 mmHg 89%
    02:00 +9°C° 0 mm 1 mps 775 mmHg 88%
    03:00 +9°C° 0 mm 1 mps 775 mmHg 87%
    04:00 +9°C° 0 mm 1 mps 775 mmHg 86%
    05:00 +9°C° 0 mm 2 mps 775 mmHg 84%
    06:00 +10°C° 0 mm 2 mps 775 mmHg 82%
    07:00 +10°C° 0 mm 2 mps 776 mmHg 82%
    08:00 +10°C° 0 mm 2 mps 776 mmHg 83%
    09:00 +12°C° 0 mm 1 mps 776 mmHg 84%
    10:00 +12°C° 0 mm 1 mps 776 mmHg 81%
    11:00 +13°C° 0 mm 1 mps 775 mmHg 79%
    12:00 +14°C° 0 mm 1 mps 775 mmHg 76%
    13:00 +15°C° 0 mm 1 mps 775 mmHg 75%
    14:00 +16°C° 0 mm 1 mps 775 mmHg 74%
    15:00 +16°C° 0 mm 1 mps 775 mmHg 72%
    16:00 +16°C° 0 mm 1 mps 774 mmHg 74%
    17:00 +16°C° 0 mm 1 mps 774 mmHg 76%
    18:00 +15°C° 0 mm 2 mps 774 mmHg 78%
    19:00 +14°C° 0 mm 2 mps 774 mmHg 81%
    20:00 +13°C° 0 mm 2 mps 774 mmHg 84%
    21:00 +10°C° 0 mm 2 mps 775 mmHg 87%
    22:00 +10°C° 0 mm 2 mps 774 mmHg 86%
    23:00 +10°C° 0 mm 2 mps 774 mmHg 86%

    Tomorrow, 28 May, Thursday

    Time Temperature Precipitation Wind Pressure Humidity
    00:00 +10°C° 0 mm 2 mps 774 mmHg 85%
    01:00 +10°C° 0 mm 2 mps 774 mmHg 86%
    02:00 +10°C° 0 mm 2 mps 773 mmHg 87%
    03:00 +10°C° 0 mm 2 mps 773 mmHg 87%
    04:00 +10°C° 0 mm 2 mps 773 mmHg 86%
    05:00 +12°C° 0 mm 2 mps 773 mmHg 84%
    06:00 +13°C° 0 mm 1 mps 773 mmHg 82%
    07:00 +14°C° 0 mm 2 mps 773 mmHg 79%
    08:00 +16°C° 0 mm 2 mps 772 mmHg 76%
    09:00 +17°C° 0 mm 2 mps 772 mmHg 73%
    10:00 +18°C° 0 mm 3 mps 772 mmHg 72%
    11:00 +18°C° 0 mm 3 mps 772 mmHg 71%
    12:00 +19°C° 0 mm 3 mps 772 mmHg 70%
    13:00 +19°C° 0 mm 4 mps 771 mmHg 71%
    14:00 +19°C° 0 mm 4 mps 771 mmHg 71%
    15:00 +19°C° 0 mm 4 mps 770 mmHg 71%
    16:00 +19°C° 0 mm 4 mps 770 mmHg 74%
    17:00 +18°C° 0 mm 4 mps 770 mmHg 76%
    18:00 +18°C° 0 mm 3 mps 769 mmHg 79%
    19:00 +16°C° 0 mm 3 mps 769 mmHg 82%
    20:00 +14°C° 0 mm 3 mps 769 mmHg 86%
    21:00 +12°C° 0 mm 3 mps 769 mmHg 89%
    22:00 +12°C° 0 mm 3 mps 769 mmHg 90%
    23:00 +12°C° 0 mm 3 mps 769 mmHg 91%

    Day after tomorrow, 29 May, Friday

    Time Temperature Precipitation Wind Pressure Humidity
    00:00 +12°C° 0 mm 3 mps 769 mmHg 92%
    01:00 +12°C° 0 mm 3 mps 769 mmHg 91%
    02:00 +12°C° 0 mm 3 mps 768 mmHg 89%
    03:00 +11°C° 0 mm 3 mps 768 mmHg 88%
    04:00 +12°C° 0 mm 3 mps 768 mmHg 87%
    05:00 +13°C° 0 mm 4 mps 768 mmHg 87%
    06:00 +13°C° 0 mm 4 mps 768 mmHg 86%
    07:00 +14°C° 0 mm 5 mps 768 mmHg 79%
    08:00 +15°C° 0 mm 5 mps 767 mmHg 72%
    09:00 +17°C° 0 mm 6 mps 767 mmHg 65%
    10:00 +17°C° 0 mm 6 mps 767 mmHg 63%
    11:00 +17°C° 0 mm 6 mps 767 mmHg 62%
    12:00 +17°C° 0 mm 6 mps 767 mmHg 60%
    13:00 +17°C° 0 mm 6 mps 767 mmHg 61%
    14:00 +17°C° 0 mm 6 mps 766 mmHg 62%
    15:00 +17°C° 0 mm 5 mps 766 mmHg 62%
    16:00 +17°C° 0 mm 5 mps 766 mmHg 65%
    17:00 +17°C° 0 mm 4 mps 766 mmHg 69%
    18:00 +17°C° 0 mm 4 mps 765 mmHg 72%
    19:00 +16°C° 0 mm 3 mps 765 mmHg 74%
    20:00 +13°C° 0 mm 3 mps 766 mmHg 75%
    21:00 +13°C° 0 mm 2 mps 766 mmHg 77%
    22:00 +13°C° 0 mm 2 mps 766 mmHg 77%
    23:00 +13°C° 0 mm 2 mps 766 mmHg 76%

    30 May, Saturday

    Time Temperature Precipitation Wind Pressure Humidity
    00:00 +12°C° 0 mm 2 mps 766 mmHg 76%
    01:00 +12°C° 0 mm 2 mps 766 mmHg 77%
    02:00 +12°C° 0 mm 2 mps 765 mmHg 79%
    03:00 +12°C° 0 mm 2 mps 765 mmHg 80%
    04:00 +12°C° 0 mm 3 mps 765 mmHg 82%
    05:00 +13°C° 0 mm 3 mps 765 mmHg 84%
    06:00 +13°C° 0 mm 4 mps 765 mmHg 85%
    07:00 +14°C° 0 mm 4 mps 765 mmHg 83%
    08:00 +17°C° 0 mm 4 mps 765 mmHg 80%
    09:00 +18°C° 0 mm 4 mps 765 mmHg 77%
    10:00 +17°C° 0 mm 5 mps 765 mmHg 76%
    11:00 +17°C° 0 mm 5 mps 765 mmHg 74%
    12:00 +19°C° 0 mm 5 mps 765 mmHg 72%
    13:00 +17°C° 0 mm 5 mps 765 mmHg 70%
    14:00 +17°C° 0 mm 5 mps 765 mmHg 69%
    15:00 +18°C° 0 mm 4 mps 764 mmHg 67%
    16:00 +18°C° 0 mm 4 mps 764 mmHg 69%
    17:00 +17°C° 0 mm 3 mps 764 mmHg 71%
    18:00 +17°C° 0 mm 3 mps 764 mmHg 72%
    19:00 +15°C° 0 mm 2 mps 764 mmHg 76%
    20:00 +13°C° 0 mm 2 mps 764 mmHg 80%
    21:00 +12°C° 0 mm 2 mps 765 mmHg 84%
    22:00 +10°C° 0 mm 2 mps 765 mmHg 82%
    23:00 +10°C° 0 mm 2 mps 765 mmHg 81%

    31 May, Sunday

    Time Temperature Precipitation Wind Pressure Humidity
    00:00 +9°C° 0 mm 2 mps 765 mmHg 79%
    01:00 +9°C° 0 mm 2 mps 765 mmHg 79%
    02:00 +9°C° 0 mm 2 mps 765 mmHg 79%
    03:00 +9°C° 0 mm 2 mps 764 mmHg 78%
    04:00 +10°C° 0 mm 2 mps 764 mmHg 80%
    05:00 +11°C° 0 mm 3 mps 764 mmHg 81%
    06:00 +12°C° 0 mm 3 mps 764 mmHg 82%
    07:00 +14°C° 0 mm 4 mps 764 mmHg 81%
    08:00 +15°C° 0 mm 4 mps 764 mmHg 80%
    09:00 +17°C° 0 mm 4 mps 764 mmHg 78%
    10:00 +18°C° 0 mm 4 mps 764 mmHg 76%
    11:00 +17°C° 0 mm 5 mps 764 mmHg 74%
    12:00 +19°C° 0 mm 5 mps 764 mmHg 72%
    13:00 +19°C° 0 mm 5 mps 764 mmHg 71%
    14:00 +19°C° 0 mm 5 mps 763 mmHg 71%
    15:00 +19°C° 0 mm 5 mps 763 mmHg 70%
    16:00 +19°C° 0 mm 4 mps 763 mmHg 72%
    17:00 +18°C° 0 mm 4 mps 763 mmHg 73%
    18:00 +18°C° 0 mm 4 mps 762 mmHg 75%
    19:00 +15°C° 0 mm 4 mps 762 mmHg 80%
    20:00 +13°C° 0 mm 4 mps 762 mmHg 85%
    21:00 +12°C° 0 mm 3 mps 762 mmHg 91%
    22:00 +11°C° 0 mm 3 mps 762 mmHg 91%
    23:00 +11°C° 0 mm 3 mps 762 mmHg 91%

    1 June, Monday

    Time Temperature Precipitation Wind Pressure Humidity
    00:00 +11°C° 0 mm 3 mps 762 mmHg 91%
    01:00 +11°C° 0 mm 3 mps 762 mmHg 90%
    02:00 +11°C° 0 mm 3 mps 761 mmHg 89%
    03:00 +11°C° 0 mm 3 mps 761 mmHg 89%
    04:00 +12°C° 0 mm 3 mps 761 mmHg 88%
    05:00 +12°C° 0 mm 4 mps 761 mmHg 87%
    06:00 +13°C° 0 mm 4 mps 761 mmHg 86%
    07:00 +14°C° 0 mm 4 mps 761 mmHg 83%
    08:00 +15°C° 0 mm 5 mps 761 mmHg 80%
    09:00 +16°C° 0 mm 6 mps 761 mmHg 77%
    10:00 +17°C° 0 mm 6 mps 760 mmHg 74%
    11:00 +17°C° 0 mm 6 mps 760 mmHg 72%
    12:00 +17°C° 0 mm 5 mps 760 mmHg 69%
    13:00 +17°C° 0 mm 5 mps 760 mmHg 70%
    14:00 +18°C° 0 mm 4 mps 760 mmHg 70%
    15:00 +18°C° 0 mm 4 mps 759 mmHg 70%
    16:00 +18°C° 0 mm 3 mps 759 mmHg 71%
    17:00 +17°C° 0 mm 3 mps 759 mmHg 72%
    18:00 +17°C° 0 mm 3 mps 759 mmHg 72%
    19:00 +16°C° 0 mm 3 mps 759 mmHg 75%
    20:00 +13°C° 0 mm 3 mps 759 mmHg 77%
    21:00 +12°C° 0 mm 3 mps 759 mmHg 79%
    22:00 +12°C° 0 mm 4 mps 760 mmHg 81%
    23:00 +13°C° 0 mm 4 mps 760 mmHg 83%
    Show more